TimeCST,TemperatureF,Dew PointF,Humidity,Sea Level PressureIn,VisibilityMPH,Wind Direction,Wind SpeedMPH,Gust SpeedMPH,PrecipitationIn,Events,Conditions,WindDirDegrees,DateUTC
12:52 AM,32.0,24.1,73,30.19,10.0,West,10.4,-,N/A,,Clear,280,2013-02-02 06:52:00
1:52 AM,34.0,25.0,70,30.20,10.0,NW,16.1,-,N/A,,Partly Cloudy,310,2013-02-02 07:52:00
2:52 AM,32.0,26.1,79,30.22,10.0,NW,11.5,-,N/A,,Clear,310,2013-02-02 08:52:00
3:52 AM,32.0,28.0,85,30.22,10.0,NW,10.4,-,N/A,,Clear,310,2013-02-02 09:52:00
4:52 AM,30.9,27.0,85,30.25,10.0,NW,12.7,-,N/A,,Clear,320,2013-02-02 10:52:00
5:52 AM,32.0,27.0,82,30.27,10.0,WNW,10.4,-,N/A,,Clear,300,2013-02-02 11:52:00
6:52 AM,30.0,25.0,82,30.29,10.0,West,10.4,-,N/A,,Clear,270,2013-02-02 12:52:00
7:52 AM,30.0,25.0,82,30.33,10.0,WNW,10.4,-,N/A,,Clear,290,2013-02-02 13:52:00
8:52 AM,33.1,26.1,75,30.35,10.0,NW,15.0,-,N/A,,Clear,310,2013-02-02 14:52:00
9:52 AM,41.0,28.9,62,30.34,10.0,WNW,12.7,-,N/A,,Clear,290,2013-02-02 15:52:00
10:52 AM,46.0,27.0,47,30.34,10.0,WNW,15.0,-,N/A,,Clear,300,2013-02-02 16:52:00
11:52 AM,48.9,27.0,43,30.33,10.0,WNW,12.7,-,N/A,,Clear,300,2013-02-02 17:52:00
12:52 PM,53.1,26.1,35,30.29,10.0,NW,13.8,20.7,N/A,,Clear,320,2013-02-02 18:52:00
1:52 PM,55.4,23.0,29,30.24,10.0,NNW,15.0,20.7,N/A,,Clear,330,2013-02-02 19:52:00
2:52 PM,55.0,21.0,27,30.25,10.0,NNW,8.1,-,N/A,,Clear,330,2013-02-02 20:52:00
3:52 PM,55.9,19.9,25,30.25,10.0,WNW,9.2,-,N/A,,Clear,290,2013-02-02 21:52:00
4:52 PM,55.0,19.0,24,30.26,10.0,NW,9.2,-,N/A,,Clear,310,2013-02-02 22:52:00
5:52 PM,46.0,21.0,37,30.28,10.0,WNW,5.8,-,N/A,,Clear,300,2013-02-02 23:52:00
6:52 PM,46.0,19.9,35,30.28,10.0,WSW,5.8,-,N/A,,Clear,250,2013-02-03 00:52:00
7:52 PM,39.9,21.0,47,30.30,10.0,WSW,6.9,-,N/A,,Clear,240,2013-02-03 01:52:00
8:52 PM,35.1,21.0,57,30.32,10.0,WNW,6.9,-,N/A,,Clear,290,2013-02-03 02:52:00
9:52 PM,35.1,23.0,61,30.32,10.0,WNW,10.4,-,N/A,,Clear,300,2013-02-03 03:52:00
10:52 PM,34.0,21.9,61,30.31,10.0,West,9.2,-,N/A,,Clear,270,2013-02-03 04:52:00
11:52 PM,32.0,21.0,64,30.32,10.0,WNW,5.8,-,N/A,,Clear,300,2013-02-03 05:52:00